Regional Weather Roundup
Issued by NWS Midland/Odessa, TX

Home | Current Version | Previous Version | Text Only | Print | Product List | Glossary On
Versions: 1 2 3 4 5 6 7 8 9 10 11 12 13 14 15 16 17 18 19 20 21 22 23 24 25 26 27 28 29 30 31 32 33 34 35 36 37 38 39 40 41 42 43 44 45 46 47 48 49 50
182
ASUS44 KMAF 140910
RWRMAF
MIDLAND AREA WEATHER ROUNDUP
NATIONAL WEATHER SERVICE MIDLAND TX
300 AM CST SUN FEB 14 2016

...IN SOUTHWEST TEXAS AND SOUTHEAST NEW MEXICO...

CITY           SKY/WX    TMP DP  RH WIND       PRES   REMARKS
ALPINE         CLOUDY    55  16  21 W13       30.11F
ANDREWS        FAIR      52  39  61 SW14      29.96F
ARTESIA        CLOUDY    43  18  36 N7        29.98F WCI  39
BIG SPRING     CLOUDY    51  39  63 S13       29.96F
CARLSBAD       PTCLDY    40  24  53 CALM      29.97R
DRYDEN           N/A     52  37  56 NE6       29.99S
FORT STOCKTON  CLOUDY    49  36  61 S9        29.98S
GUAD PASS      CLOUDY    54   7  15 W8        30.09S
HOBBS          CLOUDY    41  41 100 SW5       29.98F WCI  38
MARFA          CLOUDY    34  14  43 N8        30.10F WCI  27
MIDLAND AIRPK  CLOUDY    56  40  54 SW13      29.96F
MIDLAND INTL   CLOUDY    54  39  57 SW10      29.95F
ODESSA         CLOUDY    57  38  48 SW17      29.96F
PECOS          CLOUDY    41  28  60 CALM      29.96F
PRESIDIO       FAIR      57  18  21 N15       30.00S
SEMINOLE       CLOUDY    47  40  74 SW10      29.96F
SNYDER           N/A     51  40  67 S8        29.95S
WINK           CLOUDY    47  38  71 SE8       29.95F
$$
...OTHER STATIONS IN TEXAS...

CITY           SKY/WX    TMP DP  RH WIND       PRES   REMARKS
ABILENE        CLEAR     56  47  71 S20G25    29.92F
AMARILLO       CLOUDY    47  20  34 NW15      29.92R
AUSTIN         CLOUDY    57  55  93 S6        30.08F
BROWNSVILLE    PTCLDY    63  58  83 SE9       30.07F
CORPUS CHRISTI MOCLDY    57  53  86 SE7       30.07F
DALLAS FTW     CLOUDY    59  53  80 S18G29    29.99S
DEL RIO        PTCLDY    57  50  77 E9        30.02F
EL PASO        MOCLDY    47  15  27 S5        30.03F
HOUSTON INT    CLOUDY    58  55  90 SE8       30.12F
LUBBOCK        CLEAR     44  36  73 W8        29.93R WCI  39
SAN ANGELO     PTCLDY    56  47  71 S17G30    29.95F
SAN ANTONIO    PTCLDY    55  53  93 S8        30.08F
WACO           MOCLDY    57  53  86 S23G33    30.02F
WICHITA FALLS  NOT AVBL
$$
...OTHER LOCATIONS IN NEW MEXICO...

CITY           SKY/WX    TMP DP  RH WIND       PRES   REMARKS
ALAMAGORDO     CLEAR     46  10  23 E5        30.05S
ALBUQUERQUE    CLOUDY    45  13  27 CALM      30.11R
CANNON AFB     CLOUDY    42  16  34 NW10      29.95S WCI  36
CLOVIS         CLOUDY    39  18  41 NW10      29.96S WCI  32
HOLLOMAN AFB   PTCLDY    38   8  28 N9        30.03F WCI  31
ROSWELL        CLOUDY    44  17  33 CALM      29.97F
RUIDOSO          N/A     45   7  21 NW12      30.14F WCI  39
SANTA FE       CLOUDY    42  17  36 N10       30.11R WCI  36
TRUTH OR CONSE MOCLDY    51  11  20 N12G21    30.08S
TUCUMCARI      CLOUDY    42  20  41 W8        29.96R WCI  37
$$




USA.gov is the U.S. government's official web portal to all federal, state and local government web resources and services.